Temperature
18 18 18 18 18 18 18 18 18 18 18 18 18 18 18 18 18 18 18 18 18 18 18 18 18 18 18 18 18 18 18 18 17 17 17 17 17 17 17 17 17 16 16
18 18 18 18 18 18 18 18 18 18 18 18 18 18 18 18 18 18 18 18 18 19 19 18 18 18 18 18 18 18 18 18 18 18 17 17 17 17 17 17 17 17 16
18 18 18 18 18 18 18 18 18 18 18 18 18 18 18 18 18 18 18 18 18 19 19 19 19 18 18 18 18 18 18 18 18 18 18 17 17 17 17 17 17 17 16
18 18 18 18 18 18 18 18 18 18 18 18 18 18 18 18 18 18 18 18 18 18 18 18 19 19 18 18 18 19 18 18 18 18 18 18 17 17 17 17 17 17 17
17 17 17 17 17 17 17 17 17 17 17 17 17 17 17 17 18 18 18 18 18 18 18 18 18 19 19 19 19 19 19 19 18 18 18 18 18 17 17 17 17 17 17
17 17 17 17 17 17 17 17 17 17 17 17 17 17 17 17 17 17 18 18 17 17 17 18 18 18 18 19 19 19 19 19 18 18 18 18 18 17 17 17 17 17 17
17 17 16 16 16 17 17 17 17 17 17 17 16 16 17 17 17 17 17 17 17 17 17 17 18 18 18 18 18 19 19 18 18 18 18 18 18 18 17 17 17 17 17
16 16 16 16 16 16 16 16 16 16 16 16 16 16 16 17 17 17 17 17 17 17 17 17 17 17 18 18 18 18 18 18 18 18 18 18 18 18 17 17 17 17 17
16 16 16 16 16 16 16 16 16 16 16 16 16 16 16 17 18 18 17 17 17 17 17 17 17 17 17 17 17 17 18 18 18 18 18 18 18 18 17 17 17 17 17
16 16 16 16 16 15 15 15 15 15 15 15 16 15 15 16 16 17 17 17 16 16 16 16 16 16 16 16 17 17 17 17 18 18 18 18 18 18 17 17 17 17 17
16 15 15 15 15 15 15 15 15 15 15 15 15 15 15 15 15 15 16 16 16 16 16 16 16 16 16 16 16 16 17 17 17 17 17 17 17 17 17 17 17 17 17
15 15 15 15 15 14 14 14 14 14 14 14 14 15 15 15 15 15 16 16 16 16 16 16 16 16 16 16 16 16 16 16 16 17 17 17 17 17 17 17 17 17 17
15 15 14 15 14 14 14 14 14 14 14 14 14 14 14 15 15 15 15 15 15 15 15 15 15 15 15 15 15 16 16 16 16 16 16 16 16 16 16 17 17 16 16
15 15 15 14 14 14 14 13 13 13 13 14 14 14 14 14 14 15 15 15 15 15 15 15 15 15 15 15 15 15 15 15 15 15 16 16 16 16 16 16 16 16 16
15 14 14 14 14 14 14 13 13 13 13 13 14 14 14 14 14 14 14 15 14 15 14 14 14 14 14 14 14 14 14 15 15 15 15 15 15 15 15 16 16 16 16
15 14 14 14 14 14 13 13 13 13 13 13 13 14 14 14 14 14 14 14 14 14 14 14 14 13 13 13 14 14 14 14 14 14 14 14 14 15 15 15 15 15 15
14 14 14 14 13 13 13 13 13 13 12 13 13 13 13 13 14 14 14 14 14 14 14 13 13 13 13 13 13 13 13 13 13 13 13 14 14 14 14 14 14 14 14
13 13 13 13 13 13 13 13 12 12 12 12 13 13 13 13 13 13 13 14 14 14 13 13 12 12 12 12 12 12 12 12 12 13 13 13 13 13 13 13 13 13 13
13 13 13 13 13 13 13 12 12 12 12 12 12 12 13 13 13 13 13 13 13 13 13 13 12 12 12 12 12 12 12 12 12 12 12 12 12 12 12 12 12 13 13
12 12 12 12 12 12 12 12 12 12 12 12 12 12 12 12 12 12 12 12 12 12 12 12 12 11 11 11 12 12 11 11 11 11 11 11 11 11 12 12 12 12 12
11 11 12 12 12 12 12 12 12 11 11 12 12 12 12 12 12 12 12 12 12 12 12 12 11 11 11 11 12 12 12 11 11 11 11 11 11 11 11 11 11 11 12
10 11 11 11 11 12 12 12 11 11 11 11 11 11 11 11 11 11 11 11 11 11 11 11 11 11 11 11 11 11 12 12 11 11 11 11 11 10 10 10 11 11 11
10 10 10 11 11 11 11 11 11 11 11 11 11 11 11 11 11 11 11 11 11 11 11 11 11 11 10 10 11 11 11 11 11 10 11 11 11 10 10 10 10 10 10
9 9 10 10 10 10 11 11 11 11 11 11 10 10 11 11 10 11 10 10 10 10 10 10 10 10 10 10 10 10 10 10 10 10 10 11 10 10 10 9 9 10 10
8 9 9 10 10 10 10 10 10 10 10 10 10 10 10 10 10 10 10 10 10 10 10 10 10 10 10 10 10 10 10 11 11 10 10 10 10 10 10 9 9 9 9
8 8 9 9 9 10 10 10 10 10 10 10 10 10 10 10 10 10 10 10 10 9 9 9 9 9 9 9 9 10 11 11 11 10 9 10 10 10 10 9 9 9 9
Wind_Speed
10 9 8 9 11 11 9 9 10 11 11 11 12 12 11 12 12 12 10 10 13 14 15 16 16 17 17 18 20 21 22 23 25 27 28 28 27 27 26 26 25 25 25
10 10 10 10 10 11 11 9 11 11 10 10 11 12 12 13 12 12 13 12 13 15 15 16 17 18 18 18 19 20 21 22 24 26 27 28 28 27 27 27 26 26 26
11 10 11 11 11 12 11 11 11 10 11 11 12 13 12 12 12 12 13 12 12 13 16 17 17 18 19 19 19 20 21 22 23 25 26 28 28 28 28 27 27 26 26
13 11 11 12 11 11 10 10 10 10 11 11 11 11 11 11 13 13 13 13 13 13 13 16 17 18 19 19 20 20 21 22 23 24 26 27 28 28 28 28 27 27 27
12 11 11 11 11 10 10 11 10 10 11 11 11 12 12 12 12 13 13 14 14 13 14 14 17 19 19 20 21 21 21 21 22 24 25 26 27 28 28 28 27 27 27
9 10 10 10 11 10 10 10 12 12 12 11 12 12 12 13 12 12 14 13 13 15 15 16 14 15 19 19 19 20 20 20 21 23 25 26 26 27 27 28 28 28 27
8 8 10 9 10 10 11 12 11 13 12 10 10 11 12 14 14 13 13 13 14 14 14 14 13 12 10 16 18 18 18 18 19 21 23 25 25 26 27 28 28 28 28
7 8 8 9 9 9 11 11 11 11 11 9 8 8 9 10 12 14 12 13 14 12 13 14 13 11 11 11 9 13 14 16 17 18 20 22 24 25 26 27 28 28 28
7 7 8 9 9 10 10 11 11 13 12 11 10 9 8 9 7 8 11 12 12 10 11 10 11 11 11 11 10 8 9 10 13 15 16 17 20 22 25 26 27 28 28
7 8 8 9 9 10 10 11 11 11 12 12 10 11 13 11 9 8 7 9 10 10 10 9 9 9 9 9 7 3 4 5 6 8 10 13 15 17 21 24 26 27 28
7 7 8 8 9 10 11 12 12 13 12 12 11 10 12 12 14 11 10 8 8 8 8 8 7 6 6 6 4 2 3 3 2 2 3 6 9 12 16 19 23 26 27
6 7 8 8 10 10 10 11 12 14 13 13 13 12 11 10 11 12 13 11 9 7 6 5 5 5 4 4 3 6 6 4 4 4 3 2 1 5 10 14 18 21 24
7 7 8 9 10 10 11 12 12 14 14 14 14 13 13 13 12 12 12 11 9 6 5 5 4 4 4 3 5 7 8 6 6 6 6 6 5 3 1 5 8 13 17
8 8 9 10 11 11 12 11 12 13 13 13 14 14 12 12 12 12 12 10 8 7 6 5 3 4 3 4 6 5 8 8 8 8 9 8 8 7 7 5 2 4 7
9 9 10 11 11 11 12 12 11 13 12 13 13 13 11 11 10 11 11 11 9 7 6 5 4 3 3 5 5 6 8 11 11 11 11 11 11 11 11 11 11 9 7
11 11 11 11 11 12 12 12 12 11 12 12 10 11 10 9 9 9 10 9 9 7 4 3 3 5 4 6 6 9 11 14 13 12 12 13 14 14 14 14 15 14 14
11 12 11 11 12 12 12 11 12 12 12 11 10 10 9 9 7 7 7 7 7 6 5 4 4 5 6 7 7 8 9 9 11 14 14 15 15 15 16 15 16 15 15
12 12 12 12 12 11 11 11 11 11 10 10 9 7 7 5 5 4 4 5 5 5 8 9 6 6 6 8 8 7 7 9 11 14 15 15 16 16 15 15 15 15 14
13 12 12 12 11 11 10 10 9 9 8 7 6 5 4 3 3 3 3 4 4 6 8 9 7 6 6 7 8 8 9 7 9 13 15 16 16 16 15 15 15 14 13
13 13 12 12 11 10 9 8 7 6 4 3 3 2 1 2 3 5 5 6 7 8 9 10 9 7 6 7 7 8 8 7 7 9 10 12 14 15 15 15 14 13 12
14 12 12 12 11 9 8 7 5 4 3 1 0 1 3 5 5 5 6 8 9 9 9 9 9 7 6 6 6 6 8 8 7 6 7 7 8 8 10 12 13 12 11
14 12 12 12 11 9 3 3 5 4 3 3 3 4 6 8 10 11 11 10 9 10 9 8 8 8 7 7 6 6 7 7 7 4 5 6 6 7 7 10 11 11 11
14 13 12 11 11 8 7 6 6 5 5 4 5 6 6 8 9 11 13 14 13 12 8 7 10 9 9 7 6 7 6 6 7 4 4 6 6 7 7 11 10 10 10
13 12 11 10 10 9 10 9 8 7 6 6 6 8 9 9 10 12 13 13 12 11 9 9 10 9 9 7 6 8 9 9 8 5 2 5 5 6 6 8 10 9 9
13 11 10 9 10 9 11 11 10 8 8 8 8 9 10 11 11 12 14 14 13 11 14 16 14 12 12 8 3 6 7 7 8 7 3 3 5 5 5 6 7 8 7
14 12 10 9 9 9 12 13 12 9 10 9 8 9 10 12 12 10 13 14 14 13 13 13 11 11 10 8 6 4 4 5 7 7 4 2 4 3 5 5 5 4 4
Wind_Direction
260 264 264 262 265 265 257 251 258 260 257 256 256 256 257 258 256 258 262 243 239 248 257 262 260 255 250 245 242 240 237 231 225 221 220 221 222 224 224 224 222 220 219
263 266 265 264 264 265 264 263 261 263 261 258 255 254 255 257 256 255 258 256 242 243 250 259 263 260 255 251 248 245 239 234 227 222 220 220 221 222 224 224 224 222 220
263 264 268 268 267 268 265 260 262 261 258 254 253 253 253 255 256 255 257 262 261 246 240 245 253 256 256 254 251 246 241 235 228 222 219 219 219 221 222 223 223 222 220
269 267 268 268 269 267 264 261 259 257 256 255 254 253 253 251 250 252 253 253 258 263 255 240 241 248 254 256 254 250 244 235 228 222 219 218 218 219 220 221 222 221 220
279 275 274 276 276 271 266 263 259 258 259 257 256 253 252 251 252 253 254 256 255 255 259 256 237 237 246 252 253 251 246 238 230 224 221 219 219 218 219 220 221 220 219
290 288 281 280 280 275 272 267 266 261 259 260 260 260 255 251 251 251 252 253 251 251 251 256 255 242 233 238 244 248 247 241 234 228 224 221 219 217 217 218 219 219 219
302 294 291 293 285 280 279 277 272 267 261 257 258 261 258 250 248 249 248 249 248 247 248 248 250 254 243 224 229 238 243 244 238 231 226 223 220 217 216 216 217 217 217
306 299 301 296 294 292 283 279 274 270 266 252 249 260 265 256 243 242 240 238 242 243 244 242 242 241 251 256 239 225 236 244 243 237 230 224 220 217 215 215 215 215 215
304 303 300 296 298 290 288 287 280 270 268 262 244 243 255 261 264 241 234 236 236 236 239 243 240 237 237 245 254 225 219 234 240 238 233 226 221 219 216 214 214 214 213
297 298 296 295 294 292 291 285 281 277 271 267 256 242 247 265 265 264 244 233 229 230 234 238 237 234 236 239 237 249 212 222 233 239 238 230 222 218 217 216 214 214 213
288 291 294 295 292 289 290 290 287 279 272 266 263 256 251 250 249 253 258 243 228 225 223 223 229 236 238 231 225 178 149 162 171 214 241 235 225 219 217 216 218 217 215
290 290 293 292 290 291 290 286 284 279 272 269 265 258 252 248 243 241 245 244 239 228 215 214 216 217 219 205 153 104 108 113 113 103 90 85 212 225 221 221 222 221 218
296 300 298 293 292 290 287 285 282 280 277 271 266 260 255 251 251 249 248 246 241 228 209 203 201 199 195 166 129 118 102 100 99 97 90 79 67 57 171 215 222 223 219
295 301 292 289 289 288 286 284 282 278 276 274 270 266 260 254 248 246 244 241 234 221 207 193 174 180 167 142 116 133 105 94 93 91 90 85 77 71 68 70 101 198 206
284 285 287 286 287 286 286 286 281 281 280 275 272 268 261 257 250 245 242 235 228 220 206 184 170 156 150 125 131 124 105 92 88 85 84 84 83 79 74 71 71 77 94
276 278 280 283 284 284 283 284 284 282 280 276 273 269 265 259 252 246 238 230 226 223 205 169 148 144 136 127 112 109 104 99 85 85 85 84 82 80 78 76 76 76 79
271 270 273 277 280 282 283 282 282 282 280 278 275 270 265 258 250 243 232 221 213 201 175 143 131 123 123 117 114 115 115 105 92 85 87 86 84 82 80 78 77 77 76
269 265 267 270 274 279 282 282 283 285 283 279 277 274 268 257 239 229 214 202 188 175 159 144 137 130 125 120 117 115 109 103 100 93 92 89 87 85 83 80 78 76 75
271 265 262 264 269 274 277 277 279 283 284 285 284 275 265 243 204 179 167 154 147 146 142 139 136 129 127 126 125 115 108 109 108 112 103 95 91 89 85 82 78 75 73
276 268 261 259 261 265 267 267 270 273 278 287 291 286 282 139 146 139 129 126 125 125 128 130 131 133 132 139 139 135 125 114 106 108 100 105 106 100 92 85 78 73 69
280 273 264 256 253 253 254 254 253 246 241 226 117 86 85 94 91 109 122 125 127 127 129 129 130 133 136 146 142 137 126 121 108 108 120 120 123 112 105 93 79 70 65
288 279 267 256 248 244 190 218 244 218 196 169 136 114 110 110 97 91 95 103 115 128 129 131 131 127 127 129 127 139 142 142 122 102 111 106 105 98 89 81 74 69 62
297 284 273 260 246 223 168 188 220 202 169 156 145 134 127 119 123 116 103 95 85 82 101 121 124 126 126 127 135 128 110 107 97 108 126 113 111 105 102 88 84 71 60
296 289 277 265 248 216 175 178 188 185 159 148 143 137 132 133 130 128 122 112 104 91 91 100 105 104 105 103 107 112 118 120 116 97 102 114 115 115 111 104 97 81 66
289 285 279 268 251 218 179 177 185 176 158 149 146 141 139 134 125 130 126 119 111 100 76 75 78 84 72 59 65 145 150 145 124 101 83 106 116 122 114 108 119 125 104
282 279 274 265 252 226 186 181 192 179 162 154 147 142 136 135 138 140 134 130 126 123 120 113 107 114 106 90 53 75 125 132 129 109 76 83 111 137 126 100 77 83 106
Height
1535 1535 1533 1532 1532 1533 1532 1531 1532 1532 1531 1531 1532 1532 1532 1532 1532 1532 1532 1531 1531 1532 1532 1533 1533 1534 1535 1536 1537 1538 1539 1540 1541 1543 1544 1545 1546 1548 1550 1551 1553 1555 1557
1530 1530 1529 1528 1527 1527 1528 1527 1527 1526 1526 1526 1526 1526 1526 1526 1526 1526 1526 1526 1526 1526 1527 1528 1529 1529 1530 1531 1532 1533 1534 1535 1536 1538 1539 1540 1542 1543 1545 1546 1548 1551 1553
1526 1525 1524 1523 1522 1522 1521 1521 1521 1520 1520 1520 1520 1520 1520 1519 1519 1519 1520 1520 1520 1520 1521 1522 1523 1524 1525 1526 1526 1527 1529 1530 1531 1532 1534 1535 1536 1538 1539 1541 1543 1546 1548
1521 1520 1519 1518 1517 1516 1516 1515 1514 1514 1514 1514 1513 1513 1513 1513 1512 1512 1513 1513 1514 1514 1515 1516 1517 1518 1519 1520 1520 1521 1522 1524 1525 1527 1528 1529 1531 1532 1534 1536 1538 1540 1542
1517 1515 1514 1513 1512 1511 1510 1509 1509 1508 1508 1507 1506 1506 1506 1506 1505 1505 1506 1506 1507 1507 1508 1510 1510 1511 1512 1513 1514 1515 1516 1517 1519 1520 1522 1523 1525 1527 1528 1530 1532 1534 1537
1512 1511 1510 1508 1507 1505 1504 1503 1503 1502 1501 1501 1500 1500 1499 1498 1498 1498 1498 1499 1499 1500 1501 1503 1504 1504 1505 1506 1507 1508 1509 1510 1512 1514 1515 1517 1519 1521 1522 1524 1526 1528 1531
1509 1507 1506 1504 1502 1501 1499 1498 1497 1496 1495 1495 1494 1493 1492 1491 1490 1490 1490 1491 1492 1493 1494 1495 1497 1498 1499 1499 1500 1501 1502 1504 1505 1507 1509 1510 1512 1514 1516 1518 1520 1522 1525
1505 1504 1502 1500 1498 1496 1494 1493 1492 1490 1489 1490 1489 1488 1486 1485 1483 1483 1482 1483 1484 1486 1487 1489 1490 1491 1492 1494 1494 1494 1495 1496 1498 1500 1502 1504 1506 1508 1510 1512 1514 1516 1519
1502 1499 1497 1495 1493 1492 1490 1488 1487 1486 1484 1484 1483 1483 1482 1479 1478 1477 1476 1477 1478 1479 1481 1483 1484 1484 1485 1487 1488 1488 1488 1489 1491 1493 1495 1497 1499 1501 1503 1505 1508 1510 1513
1498 1496 1494 1491 1489 1488 1486 1484 1483 1480 1479 1478 1477 1476 1476 1475 1475 1473 1472 1472 1472 1473 1475 1476 1478 1479 1480 1481 1481 1481 1482 1483 1485 1486 1488 1490 1493 1495 1497 1499 1501 1504 1506
1495 1492 1490 1487 1485 1483 1481 1478 1476 1475 1474 1472 1471 1470 1469 1468 1469 1469 1468 1467 1467 1468 1469 1471 1472 1473 1475 1476 1476 1476 1477 1478 1479 1481 1482 1484 1487 1489 1491 1493 1495 1497 1500
1492 1489 1486 1483 1481 1478 1476 1473 1471 1469 1467 1466 1465 1464 1463 1462 1462 1462 1462 1462 1463 1463 1464 1465 1467 1468 1470 1471 1472 1472 1473 1474 1475 1476 1478 1479 1481 1483 1485 1487 1489 1491 1494
1489 1485 1482 1479 1476 1474 1471 1468 1466 1463 1461 1459 1458 1457 1456 1455 1456 1456 1456 1457 1458 1459 1459 1461 1462 1464 1466 1467 1468 1469 1470 1471 1472 1473 1474 1475 1477 1478 1480 1482 1483 1485 1488
1484 1481 1477 1474 1472 1469 1466 1463 1460 1458 1456 1453 1451 1450 1449 1448 1449 1449 1450 1452 1453 1454 1455 1457 1458 1460 1462 1464 1465 1466 1467 1468 1469 1470 1471 1472 1473 1475 1476 1477 1479 1481 1483
1478 1476 1473 1470 1467 1464 1461 1458 1455 1452 1450 1447 1445 1443 1442 1441 1442 1443 1444 1446 1449 1449 1451 1453 1455 1457 1459 1461 1462 1464 1465 1466 1467 1468 1469 1470 1471 1472 1473 1474 1475 1476 1478
1472 1470 1467 1465 1462 1459 1456 1453 1450 1447 1444 1441 1440 1438 1436 1436 1436 1437 1438 1440 1443 1445 1447 1450 1452 1454 1457 1459 1461 1463 1464 1465 1466 1467 1468 1468 1469 1470 1471 1472 1472 1474 1475
1466 1463 1461 1459 1456 1454 1451 1448 1445 1442 1439 1437 1435 1433 1431 1431 1431 1432 1433 1435 1438 1441 1444 1447 1450 1452 1455 1457 1459 1462 1463 1464 1465 1466 1467 1468 1469 1469 1470 1471 1472 1473 1474
1459 1457 1455 1453 1451 1448 1446 1443 1440 1438 1435 1433 1431 1429 1428 1427 1427 1428 1429 1431 1434 1437 1440 1444 1448 1451 1454 1456 1459 1461 1463 1465 1465 1466 1467 1468 1469 1470 1470 1471 1472 1472 1473
1451 1450 1448 1447 1445 1443 1441 1438 1436 1434 1432 1429 1428 1426 1425 1425 1425 1426 1427 1429 1431 1434 1438 1442 1446 1450 1453 1456 1459 1461 1463 1465 1466 1467 1468 1469 1470 1470 1471 1472 1472 1473 1473
1444 1443 1441 1440 1439 1437 1435 1434 1432 1430 1428 1427 1425 1424 1423 1423 1424 1424 1426 1428 1430 1433 1437 1441 1445 1450 1453 1456 1459 1462 1464 1466 1467 1469 1469 1470 1470 1471 1472 1472 1473 1473 1473
1438 1436 1434 1433 1432 1431 1430 1429 1428 1426 1425 1424 1424 1423 1423 1423 1424 1425 1427 1429 1431 1434 1438 1441 1445 1450 1453 1457 1460 1462 1464 1466 1468 1470 1471 1472 1472 1473 1473 1473 1473 1473 1473
1431 1429 1427 1426 1426 1426 1425 1424 1424 1424 1423 1423 1423 1423 1423 1424 1425 1427 1429 1431 1434 1437 1440 1443 1447 1450 1453 1457 1459 1462 1464 1467 1469 1471 1472 1473 1474 1474 1474 1473 1473 1474 1474
1424 1422 1421 1420 1419 1419 1419 1420 1420 1421 1421 1421 1422 1422 1424 1425 1427 1429 1431 1434 1437 1440 1443 1446 1449 1452 1455 1457 1460 1462 1464 1467 1468 1470 1472 1473 1474 1474 1474 1473 1474 1474 1473
1418 1415 1414 1413 1413 1414 1414 1416 1417 1418 1419 1420 1422 1423 1424 1426 1429 1431 1434 1436 1439 1443 1446 1448 1450 1453 1455 1458 1460 1463 1464 1466 1468 1470 1472 1474 1474 1475 1475 1474 1474 1473 1473
1412 1409 1407 1407 1407 1408 1409 1412 1414 1416 1417 1419 1421 1423 1425 1428 1430 1433 1436 1438 1441 1445 1448 1450 1452 1454 1456 1458 1461 1464 1466 1468 1469 1471 1472 1473 1474 1475 1475 1475 1474 1473 1473
1406 1404 1402 1401 1401 1402 1404 1407 1410 1413 1416 1418 1421 1423 1426 1429 1432 1436 1438 1441 1443 1447 1450 1452 1455 1457 1459 1460 1462 1464 1467 1468 1469 1471 1471 1473 1474 1475 1476 1476 1476 1475 1474